Time,TemperatureF,DewpointF,PressureIn,WindDirection,WindDirectionDegrees,WindSpeedMPH,WindSpeedGustMPH,Humidity,HourlyPrecipIn,Conditions,Clouds,dailyrainin,SoftwareType,DateUTC
2013-06-12 00:02:00,54.0,43.2,30.00,SE,135,0.0,0.0,67,0.00,RA,FEW,0.00,WeatherDisplay:10.37,2013-06-12 07:02:00,
2013-06-12 00:07:00,53.8,42.7,30.00,SE,135,0.0,0.0,66,0.00,RA,FEW,0.00,WeatherDisplay:10.37,2013-06-12 07:07:00,
2013-06-12 00:12:00,53.4,42.7,30.00,SE,135,0.0,0.0,67,0.00,CLR,FEW,0.00,WeatherDisplay:10.37,2013-06-12 07:12:00,
2013-06-12 00:17:00,53.4,42.7,30.00,SE,135,0.0,0.0,67,0.00,CLR,FEW,0.00,WeatherDisplay:10.37,2013-06-12 07:17:00,
2013-06-12 00:22:00,53.4,43.1,30.00,SE,135,0.0,0.0,68,0.00,CLR,FEW,0.00,WeatherDisplay:10.37,2013-06-12 07:22:00,
2013-06-12 00:27:00,53.4,43.1,30.01,SE,135,0.0,0.0,68,0.00,CLR,FEW,0.00,WeatherDisplay:10.37,2013-06-12 07:27:00,
2013-06-12 00:32:00,53.8,43.5,30.00,SE,135,0.0,0.0,68,0.00,CLR,FEW,0.00,WeatherDisplay:10.37,2013-06-12 07:32:00,
2013-06-12 00:37:00,53.8,43.8,30.00,SE,135,0.0,0.0,69,0.00,CLR,FEW,0.00,WeatherDisplay:10.37,2013-06-12 07:37:00,
2013-06-12 00:42:00,53.8,43.8,30.00,SE,135,0.0,0.0,69,0.00,CLR,FEW,0.00,WeatherDisplay:10.37,2013-06-12 07:42:00,
2013-06-12 00:47:00,54.0,44.4,30.00,SE,135,0.0,0.0,70,0.00,CLR,FEW,0.00,WeatherDisplay:10.37,2013-06-12 07:47:00,
2013-06-12 00:52:00,54.0,44.8,30.00,SE,135,0.0,0.0,71,0.00,CLR,FEW,0.00,WeatherDisplay:10.37,2013-06-12 07:52:00,
2013-06-12 00:57:00,54.1,44.6,30.00,SE,135,0.0,0.0,70,0.00,CLR,FEW,0.00,WeatherDisplay:10.37,2013-06-12 07:57:00,
2013-06-12 01:02:00,54.1,44.9,30.00,SE,135,0.0,0.0,71,0.00,CLR,FEW,0.00,WeatherDisplay:10.37,2013-06-12 08:02:00,
2013-06-12 01:07:00,54.1,44.6,30.00,SE,135,0.0,0.0,70,0.00,CLR,FEW,0.00,WeatherDisplay:10.37,2013-06-12 08:07:00,
2013-06-12 01:12:00,54.1,44.6,30.00,SE,135,0.0,0.0,70,0.00,CLR,FEW,0.00,WeatherDisplay:10.37,2013-06-12 08:12:00,
2013-06-12 01:17:00,54.1,44.6,30.00,SE,135,0.0,0.0,70,0.00,CLR,FEW,0.00,WeatherDisplay:10.37,2013-06-12 08:17:00,
2013-06-12 01:22:00,54.3,44.7,30.00,SE,135,0.0,0.0,70,0.00,CLR,FEW,0.00,WeatherDisplay:10.37,2013-06-12 08:22:00,
2013-06-12 01:27:00,54.1,44.6,30.00,SE,135,0.0,0.0,70,0.00,CLR,FEW,0.00,WeatherDisplay:10.37,2013-06-12 08:27:00,
2013-06-12 01:32:00,54.1,44.6,30.00,SE,135,0.0,0.0,70,0.00,CLR,FEW,0.00,WeatherDisplay:10.37,2013-06-12 08:32:00,
2013-06-12 01:37:00,54.1,44.6,30.01,SE,135,0.0,0.0,70,0.00,CLR,FEW,0.00,WeatherDisplay:10.37,2013-06-12 08:37:00,
2013-06-12 01:42:00,54.0,44.4,30.01,SE,135,0.0,0.0,70,0.00,CLR,FEW,0.00,WeatherDisplay:10.37,2013-06-12 08:42:00,
2013-06-12 01:47:00,54.0,44.8,30.01,SE,135,0.0,0.0,71,0.00,CLR,FEW,0.00,WeatherDisplay:10.37,2013-06-12 08:47:00,
2013-06-12 01:52:00,54.0,44.8,30.01,SSE,158,0.0,0.0,71,0.00,CLR,FEW,0.00,WeatherDisplay:10.37,2013-06-12 08:52:00,
2013-06-12 01:57:00,54.0,44.8,30.01,SSE,158,0.0,0.0,71,0.00,CLR,FEW,0.00,WeatherDisplay:10.37,2013-06-12 08:57:00,
2013-06-12 02:02:00,54.1,44.9,30.01,SSE,158,0.0,0.0,71,0.00,CLR,FEW,0.00,WeatherDisplay:10.37,2013-06-12 09:02:00,
2013-06-12 02:07:00,54.1,44.9,30.01,SSE,158,0.0,0.0,71,0.00,CLR,FEW,0.00,WeatherDisplay:10.37,2013-06-12 09:07:00,
2013-06-12 02:12:00,54.1,44.9,30.01,SSE,158,0.0,0.0,71,0.00,CLR,FEW,0.00,WeatherDisplay:10.37,2013-06-12 09:12:00,
2013-06-12 02:17:00,54.1,44.9,30.01,SSE,158,0.0,0.0,71,0.00,CLR,FEW,0.00,WeatherDisplay:10.37,2013-06-12 09:17:00,
2013-06-12 02:22:00,54.0,45.1,30.01,SSE,158,0.0,0.0,72,0.00,CLR,FEW,0.00,WeatherDisplay:10.37,2013-06-12 09:22:00,
2013-06-12 02:27:00,53.8,45.3,30.01,SSE,158,0.0,0.0,73,0.00,CLR,FEW,0.00,WeatherDisplay:10.37,2013-06-12 09:27:00,
2013-06-12 02:32:00,53.8,45.0,30.02,SSE,158,0.0,0.0,72,0.00,CLR,FEW,0.00,WeatherDisplay:10.37,2013-06-12 09:32:00,
2013-06-12 02:37:00,53.8,45.3,30.02,SSE,158,0.0,0.0,73,0.00,CLR,FEW,0.00,WeatherDisplay:10.37,2013-06-12 09:37:00,
2013-06-12 02:42:00,53.6,45.2,30.02,SSE,158,0.0,0.0,73,0.00,CLR,FEW,0.00,WeatherDisplay:10.37,2013-06-12 09:42:00,
2013-06-12 02:47:00,53.6,45.2,30.03,SSE,158,0.0,0.0,73,0.00,CLR,FEW,0.00,WeatherDisplay:10.37,2013-06-12 09:47:00,
2013-06-12 02:52:00,53.8,45.7,30.03,SSE,158,0.0,0.0,74,0.00,CLR,FEW,0.00,WeatherDisplay:10.37,2013-06-12 09:52:00,
2013-06-12 02:57:00,53.8,45.7,30.02,SSE,158,0.0,0.0,74,0.00,CLR,FEW,0.00,WeatherDisplay:10.37,2013-06-12 09:57:00,
2013-06-12 03:02:00,53.8,45.7,30.01,SSE,158,0.0,0.0,74,0.00,CLR,FEW,0.00,WeatherDisplay:10.37,2013-06-12 10:02:00,
2013-06-12 03:07:00,54.0,45.5,30.02,SSE,158,0.0,0.0,73,0.00,CLR,FEW,0.00,WeatherDisplay:10.37,2013-06-12 10:07:00,
2013-06-12 03:12:00,53.8,45.3,30.01,SSE,158,0.0,0.0,73,0.00,CLR,FEW,0.00,WeatherDisplay:10.37,2013-06-12 10:12:00,
2013-06-12 03:17:00,53.8,45.3,30.02,SSE,158,0.0,0.0,73,0.00,CLR,FEW,0.00,WeatherDisplay:10.37,2013-06-12 10:17:00,
2013-06-12 03:22:00,53.4,45.0,30.02,SSE,158,0.0,0.0,73,0.00,CLR,FEW,0.00,WeatherDisplay:10.37,2013-06-12 10:22:00,
2013-06-12 03:27:00,53.4,45.0,30.02,SSE,158,0.0,0.0,73,0.00,CLR,FEW,0.00,WeatherDisplay:10.37,2013-06-12 10:27:00,
2013-06-12 03:32:00,53.2,44.8,30.01,SSE,158,0.0,0.0,73,0.00,CLR,FEW,0.00,WeatherDisplay:10.37,2013-06-12 10:32:00,
2013-06-12 03:37:00,52.9,44.8,30.02,SSE,158,0.0,0.0,74,0.00,CLR,FEW,0.00,WeatherDisplay:10.37,2013-06-12 10:37:00,
2013-06-12 03:42:00,52.5,44.5,30.01,SSE,158,1.6,1.6,74,0.00,CLR,FEW,0.00,WeatherDisplay:10.37,2013-06-12 10:42:00,
2013-06-12 03:47:00,52.2,44.5,30.02,SSE,158,0.0,0.0,75,0.00,CLR,FEW,0.00,WeatherDisplay:10.37,2013-06-12 10:47:00,
2013-06-12 03:52:00,52.2,44.5,30.02,SSE,158,0.0,0.0,75,0.00,CLR,FEW,0.00,WeatherDisplay:10.37,2013-06-12 10:52:00,
2013-06-12 03:57:00,52.2,44.5,30.02,SSE,158,0.0,0.0,75,0.00,CLR,FEW,0.00,WeatherDisplay:10.37,2013-06-12 10:57:00,
2013-06-12 04:02:00,52.2,44.5,30.02,SSE,158,0.0,0.0,75,0.00,CLR,FEW,0.00,WeatherDisplay:10.37,2013-06-12 11:02:00,
2013-06-12 04:07:00,52.2,44.5,30.02,SSE,158,0.0,0.0,75,0.00,CLR,FEW,0.00,WeatherDisplay:10.37,2013-06-12 11:07:00,
2013-06-12 04:12:00,52.2,44.5,30.02,SSE,158,0.0,0.0,75,0.00,CLR,FEW,0.00,WeatherDisplay:10.37,2013-06-12 11:12:00,
2013-06-12 04:17:00,52.2,44.5,30.02,SSE,158,0.0,0.0,75,0.00,CLR,FEW,0.00,WeatherDisplay:10.37,2013-06-12 11:17:00,
2013-06-12 04:22:00,52.2,44.5,30.01,SSE,158,0.0,0.0,75,0.00,CLR,FEW,0.00,WeatherDisplay:10.37,2013-06-12 11:22:00,
2013-06-12 04:27:00,52.3,44.6,30.02,SSE,158,0.0,0.0,75,0.00,CLR,FEW,0.00,WeatherDisplay:10.37,2013-06-12 11:27:00,
2013-06-12 04:32:00,52.3,44.6,30.02,SSE,158,0.0,0.0,75,0.00,CLR,FEW,0.00,WeatherDisplay:10.37,2013-06-12 11:32:00,
2013-06-12 04:37:00,52.3,44.3,30.01,SSE,158,0.0,0.0,74,0.00,CLR,FEW,0.00,WeatherDisplay:10.37,2013-06-12 11:37:00,
2013-06-12 04:42:00,52.3,44.3,30.02,SSE,158,0.0,0.0,74,0.00,CLR,FEW,0.00,WeatherDisplay:10.37,2013-06-12 11:42:00,
2013-06-12 04:47:00,52.3,44.3,30.02,SSE,158,0.0,0.0,74,0.00,CLR,FEW,0.00,WeatherDisplay:10.37,2013-06-12 11:47:00,
2013-06-12 04:52:00,52.3,44.3,30.02,SE,135,0.0,0.0,74,0.00,CLR,FEW,0.00,WeatherDisplay:10.37,2013-06-12 11:52:00,
2013-06-12 04:57:00,52.2,44.1,30.02,SE,135,0.0,0.0,74,0.00,CLR,FEW,0.00,WeatherDisplay:10.37,2013-06-12 11:57:00,
2013-06-12 05:02:00,52.3,44.3,30.02,SE,135,0.0,0.0,74,0.00,CLR,FEW,0.00,WeatherDisplay:10.37,2013-06-12 12:02:00,
2013-06-12 05:07:00,52.3,44.3,30.02,NE,45,1.1,1.1,74,0.00,CLR,FEW,0.00,WeatherDisplay:10.37,2013-06-12 12:07:00,
2013-06-12 05:12:00,52.3,44.3,30.03,NE,45,0.0,0.0,74,0.00,CLR,FEW,0.00,WeatherDisplay:10.37,2013-06-12 12:12:00,
2013-06-12 05:17:00,52.5,44.5,30.03,ESE,112,4.2,4.2,74,0.00,CLR,FEW,0.00,WeatherDisplay:10.37,2013-06-12 12:17:00,
2013-06-12 05:22:00,52.5,44.8,30.03,ESE,112,0.0,0.0,75,0.00,CLR,FEW,0.00,WeatherDisplay:10.37,2013-06-12 12:22:00,
2013-06-12 05:27:00,52.5,44.5,30.02,ESE,112,0.0,0.0,74,0.00,CLR,FEW,0.00,WeatherDisplay:10.37,2013-06-12 12:27:00,
2013-06-12 05:32:00,52.7,45.0,30.02,ESE,112,0.0,0.0,75,0.00,CLR,FEW,0.00,WeatherDisplay:10.37,2013-06-12 12:32:00,
2013-06-12 05:37:00,52.9,45.2,30.02,ESE,112,0.0,0.0,75,0.00,CLR,FEW,0.00,WeatherDisplay:10.37,2013-06-12 12:37:00,
2013-06-12 05:42:00,52.9,45.2,30.02,ESE,112,0.0,0.0,75,0.00,CLR,FEW,0.00,WeatherDisplay:10.37,2013-06-12 12:42:00,
2013-06-12 05:47:00,52.9,45.2,30.02,ESE,112,0.0,0.0,75,0.00,CLR,FEW,0.00,WeatherDisplay:10.37,2013-06-12 12:47:00,
2013-06-12 05:52:00,53.2,45.5,30.02,ESE,112,0.0,0.0,75,0.00,CLR,FEW,0.00,WeatherDisplay:10.37,2013-06-12 12:52:00,
2013-06-12 05:57:00,53.2,45.5,30.02,ESE,112,0.0,0.0,75,0.00,CLR,FEW,0.00,WeatherDisplay:10.37,2013-06-12 12:57:00,
2013-06-12 06:02:00,52.9,45.5,30.02,ESE,112,0.0,0.0,76,0.00,CLR,FEW,0.00,WeatherDisplay:10.37,2013-06-12 13:02:00,
2013-06-12 06:07:00,53.2,45.9,30.03,ESE,112,0.0,0.0,76,0.00,CLR,FEW,0.00,WeatherDisplay:10.37,2013-06-12 13:07:00,
2013-06-12 06:12:00,53.2,45.9,30.03,ESE,112,0.0,0.0,76,0.00,CLR,FEW,0.00,WeatherDisplay:10.37,2013-06-12 13:12:00,
2013-06-12 06:17:00,53.4,46.0,30.02,ESE,112,0.0,0.0,76,0.00,CLR,FEW,0.00,WeatherDisplay:10.37,2013-06-12 13:17:00,
2013-06-12 06:22:00,53.4,46.0,30.02,ESE,112,0.0,0.0,76,0.00,CLR,FEW,0.00,WeatherDisplay:10.37,2013-06-12 13:22:00,
2013-06-12 06:27:00,53.4,46.0,30.03,ESE,112,0.0,0.0,76,0.00,CLR,FEW,0.00,WeatherDisplay:10.37,2013-06-12 13:27:00,
2013-06-12 06:32:00,53.6,46.2,30.03,ESE,112,0.0,0.0,76,0.00,CLR,FEW,0.00,WeatherDisplay:10.37,2013-06-12 13:32:00,
2013-06-12 06:37:00,53.8,46.4,30.03,ESE,112,0.0,0.0,76,0.00,CLR,FEW,0.00,WeatherDisplay:10.37,2013-06-12 13:37:00,
2013-06-12 06:42:00,53.8,46.4,30.03,ESE,112,0.0,0.0,76,0.00,CLR,FEW,0.00,WeatherDisplay:10.37,2013-06-12 13:42:00,
2013-06-12 06:47:00,54.1,46.7,30.03,ESE,112,0.0,0.0,76,0.00,CLR,FEW,0.00,WeatherDisplay:10.37,2013-06-12 13:47:00,
2013-06-12 06:52:00,54.3,46.9,30.03,ESE,112,0.0,0.0,76,0.00,CLR,FEW,0.00,WeatherDisplay:10.37,2013-06-12 13:52:00,
2013-06-12 06:57:00,54.7,46.9,30.03,ESE,112,0.0,0.0,75,0.00,CLR,FEW,0.00,WeatherDisplay:10.37,2013-06-12 13:57:00,
2013-06-12 07:02:00,55.0,46.5,30.03,ESE,112,0.0,0.0,73,0.00,CLR,FEW,0.00,WeatherDisplay:10.37,2013-06-12 14:02:00,
2013-06-12 07:07:00,55.2,47.1,30.03,ESE,112,0.0,0.0,74,0.00,CLR,FEW,0.00,WeatherDisplay:10.37,2013-06-12 14:07:00,
2013-06-12 07:12:00,55.2,47.1,30.03,ESE,112,0.0,0.0,74,0.00,CLR,FEW,0.00,WeatherDisplay:10.37,2013-06-12 14:12:00,
2013-06-12 07:17:00,55.4,46.9,30.03,ESE,112,0.0,0.0,73,0.00,CLR,FEW,0.00,WeatherDisplay:10.37,2013-06-12 14:17:00,
2013-06-12 07:22:00,55.9,47.4,30.03,ESE,112,0.0,0.0,73,0.00,CLR,FEW,0.00,WeatherDisplay:10.37,2013-06-12 14:22:00,
2013-06-12 07:27:00,56.1,47.2,30.03,ESE,112,0.0,0.0,72,0.00,CLR,FEW,0.00,WeatherDisplay:10.37,2013-06-12 14:27:00,
2013-06-12 07:32:00,56.3,47.0,30.03,ESE,112,0.0,0.0,71,0.00,CLR,FEW,0.00,WeatherDisplay:10.37,2013-06-12 14:32:00,
2013-06-12 07:37:00,57.0,46.9,30.03,ESE,112,0.0,0.0,69,0.00,CLR,FEW,0.00,WeatherDisplay:10.37,2013-06-12 14:37:00,
2013-06-12 07:42:00,57.0,46.9,30.03,ESE,112,0.0,0.0,69,0.00,CLR,FEW,0.00,WeatherDisplay:10.37,2013-06-12 14:42:00,
2013-06-12 07:47:00,56.8,46.8,30.03,ESE,112,0.0,0.0,69,0.00,CLR,FEW,0.00,WeatherDisplay:10.37,2013-06-12 14:47:00,
2013-06-12 07:52:00,56.8,46.4,30.03,ESE,112,0.0,0.0,68,0.00,CLR,FEW,0.00,WeatherDisplay:10.37,2013-06-12 14:52:00,
2013-06-12 07:57:00,57.0,46.6,30.03,ESE,112,0.0,0.0,68,0.00,CLR,FEW,0.00,WeatherDisplay:10.37,2013-06-12 14:57:00,
2013-06-12 08:02:00,57.9,47.0,30.03,ESE,112,0.0,0.0,67,0.00,CLR,FEW,0.00,WeatherDisplay:10.37,2013-06-12 15:02:00,
2013-06-12 08:07:00,58.8,46.7,30.03,ESE,112,0.0,0.0,64,0.00,CLR,FEW,0.00,WeatherDisplay:10.37,2013-06-12 15:07:00,
2013-06-12 08:12:00,59.4,47.2,30.03,East,90,0.0,0.0,64,0.00,CLR,FEW,0.00,WeatherDisplay:10.37,2013-06-12 15:12:00,
2013-06-12 08:17:00,60.6,46.7,30.03,NE,45,0.0,0.0,60,0.00,CLR,FEW,0.00,WeatherDisplay:10.37,2013-06-12 15:17:00,
2013-06-12 08:22:00,61.0,46.5,30.03,NNE,22,0.0,0.0,59,0.00,CLR,FEW,0.00,WeatherDisplay:10.37,2013-06-12 15:22:00,
2013-06-12 08:27:00,61.9,46.0,30.03,NNW,338,1.6,1.6,56,0.00,CLR,FEW,0.00,WeatherDisplay:10.37,2013-06-12 15:27:00,
2013-06-12 08:32:00,62.2,45.4,30.03,NW,315,2.3,2.3,54,0.00,CLR,FEW,0.00,WeatherDisplay:10.37,2013-06-12 15:32:00,
2013-06-12 08:37:00,62.4,45.5,30.03,WNW,292,9.2,9.2,54,0.00,CLR,FEW,0.00,WeatherDisplay:10.37,2013-06-12 15:37:00,
2013-06-12 08:42:00,63.0,45.1,30.03,NW,315,8.1,8.1,52,0.00,CLR,FEW,0.00,WeatherDisplay:10.37,2013-06-12 15:42:00,
2013-06-12 08:47:00,63.5,45.0,30.03,West,270,5.8,5.8,51,0.00,CLR,FEW,0.00,WeatherDisplay:10.37,2013-06-12 15:47:00,
2013-06-12 08:52:00,63.7,45.2,30.03,NW,315,11.8,11.8,51,0.00,CLR,FEW,0.00,WeatherDisplay:10.37,2013-06-12 15:52:00,
2013-06-12 08:57:00,64.0,45.0,30.03,West,270,1.1,1.1,50,0.00,CLR,FEW,0.00,WeatherDisplay:10.37,2013-06-12 15:57:00,
2013-06-12 09:02:00,64.4,44.8,30.03,WNW,292,7.6,7.6,49,0.00,CLR,FEW,0.00,WeatherDisplay:10.37,2013-06-12 16:02:00,
2013-06-12 09:07:00,64.6,44.4,30.03,NNW,338,10.4,10.4,48,0.00,CLR,FEW,0.00,WeatherDisplay:10.37,2013-06-12 16:07:00,
2013-06-12 09:12:00,64.6,45.0,30.03,WNW,292,5.1,5.1,49,0.00,CLR,FEW,0.00,WeatherDisplay:10.37,2013-06-12 16:12:00,
2013-06-12 09:17:00,64.9,44.8,30.03,NW,315,4.5,4.5,48,0.00,CLR,FEW,0.00,WeatherDisplay:10.37,2013-06-12 16:17:00,
2013-06-12 09:22:00,64.9,44.2,30.03,WNW,292,0.0,0.0,47,0.00,CLR,FEW,0.00,WeatherDisplay:10.37,2013-06-12 16:22:00,
2013-06-12 09:27:00,65.1,44.9,30.03,WNW,292,0.0,0.0,48,0.00,CLR,FEW,0.00,WeatherDisplay:10.37,2013-06-12 16:27:00,
2013-06-12 09:32:00,66.0,44.6,30.03,WSW,248,0.0,0.0,46,0.00,CLR,FEW,0.00,WeatherDisplay:10.37,2013-06-12 16:32:00,
2013-06-12 09:37:00,66.4,45.0,30.02,North,0,4.6,4.6,46,0.00,CLR,FEW,0.00,WeatherDisplay:10.37,2013-06-12 16:37:00,
2013-06-12 09:42:00,66.6,45.1,30.02,NNW,338,8.1,8.1,46,0.00,CLR,FEW,0.00,WeatherDisplay:10.37,2013-06-12 16:42:00,
2013-06-12 09:47:00,66.7,44.7,30.02,West,270,8.1,8.1,45,0.00,CLR,FEW,0.00,WeatherDisplay:10.37,2013-06-12 16:47:00,
2013-06-12 09:52:00,67.1,44.4,30.02,WNW,292,5.1,5.1,44,0.00,CLR,FEW,0.00,WeatherDisplay:10.37,2013-06-12 16:52:00,
2013-06-12 09:57:00,67.3,44.6,30.02,West,270,0.0,0.0,44,0.00,CLR,FEW,0.00,WeatherDisplay:10.37,2013-06-12 16:57:00,
2013-06-12 10:02:00,67.8,44.5,30.02,NW,315,4.2,4.2,43,0.00,CLR,FEW,0.00,WeatherDisplay:10.37,2013-06-12 17:02:00,
2013-06-12 10:07:00,67.8,44.5,30.01,WSW,248,8.1,8.1,43,0.00,CLR,FEW,0.00,WeatherDisplay:10.37,2013-06-12 17:07:00,
2013-06-12 10:12:00,67.8,45.1,30.01,NW,315,0.0,0.0,44,0.00,CLR,FEW,0.00,WeatherDisplay:10.37,2013-06-12 17:12:00,
2013-06-12 10:17:00,68.9,46.1,30.01,NW,315,0.0,0.3,44,0.00,CLR,FEW,0.00,WeatherDisplay:10.37,2013-06-12 17:17:00,
2013-06-12 10:22:00,69.4,46.0,30.01,NNW,338,1.1,0.0,43,0.00,CLR,FEW,0.00,WeatherDisplay:10.37,2013-06-12 17:22:00,
2013-06-12 10:27:00,69.1,45.6,30.01,SE,135,1.6,1.6,43,0.00,CLR,FEW,0.00,WeatherDisplay:10.37,2013-06-12 17:27:00,
2013-06-12 10:32:00,68.7,45.3,30.01,NE,45,5.8,5.8,43,0.00,CLR,FEW,0.00,WeatherDisplay:10.37,2013-06-12 17:32:00,
2013-06-12 10:37:00,68.5,45.8,30.01,NNE,22,7.2,7.2,44,0.00,CLR,FEW,0.00,WeatherDisplay:10.37,2013-06-12 17:37:00,
2013-06-12 10:42:00,69.1,45.6,30.01,NNE,22,1.1,1.1,43,0.00,CLR,FEW,0.00,WeatherDisplay:10.37,2013-06-12 17:42:00,
2013-06-12 10:47:00,69.6,45.5,30.01,ENE,68,1.3,1.3,42,0.00,CLR,FEW,0.00,WeatherDisplay:10.37,2013-06-12 17:47:00,
2013-06-12 10:52:00,69.4,46.0,30.01,East,90,4.6,4.6,43,0.00,CLR,FEW,0.00,WeatherDisplay:10.37,2013-06-12 17:52:00,
2013-06-12 10:57:00,69.6,45.5,30.01,ENE,68,0.0,0.0,42,0.00,CLR,FEW,0.00,WeatherDisplay:10.37,2013-06-12 17:57:00,
2013-06-12 11:02:00,70.5,46.3,30.00,South,180,0.0,0.0,42,0.00,CLR,FEW,0.00,WeatherDisplay:10.37,2013-06-12 18:02:00,
2013-06-12 11:07:00,71.2,46.3,30.00,SSE,158,0.0,0.0,41,0.00,CLR,FEW,0.00,WeatherDisplay:10.37,2013-06-12 18:07:00,
2013-06-12 11:12:00,71.6,46.6,30.00,WSW,248,0.0,0.0,41,0.00,CLR,FEW,0.00,WeatherDisplay:10.37,2013-06-12 18:12:00,
2013-06-12 11:17:00,72.5,46.1,29.99,North,0,4.6,5.2,39,0.00,CLR,FEW,0.00,WeatherDisplay:10.37,2013-06-12 18:17:00,
2013-06-12 11:22:00,72.5,46.1,30.00,NNW,338,6.9,6.9,39,0.00,CLR,FEW,0.00,WeatherDisplay:10.37,2013-06-12 18:22:00,
2013-06-12 11:27:00,72.3,45.3,29.99,WNW,292,9.2,9.2,38,0.00,CLR,FEW,0.00,WeatherDisplay:10.37,2013-06-12 18:27:00,
2013-06-12 11:32:00,72.7,45.6,29.99,SW,225,4.6,4.6,38,0.00,CLR,FEW,0.00,WeatherDisplay:10.37,2013-06-12 18:32:00,
2013-06-12 11:37:00,73.0,46.6,29.99,SW,225,4.6,0.0,39,0.00,CLR,FEW,0.00,WeatherDisplay:10.37,2013-06-12 18:37:00,
2013-06-12 11:42:00,73.2,45.4,29.98,NW,315,6.9,6.9,37,0.00,CLR,FEW,0.00,WeatherDisplay:10.37,2013-06-12 18:42:00,
2013-06-12 11:47:00,73.2,45.4,29.99,West,270,5.8,5.8,37,0.00,CLR,FEW,0.00,WeatherDisplay:10.37,2013-06-12 18:47:00,
2013-06-12 11:52:00,73.0,45.2,29.98,WSW,248,4.6,4.6,37,0.00,CLR,FEW,0.00,WeatherDisplay:10.37,2013-06-12 18:52:00,
2013-06-12 11:57:00,73.2,46.1,29.98,SW,225,0.0,0.0,38,0.00,CLR,FEW,0.00,WeatherDisplay:10.37,2013-06-12 18:57:00,
2013-06-12 12:02:00,73.8,45.9,29.98,NW,315,0.0,0.0,37,0.00,CLR,FEW,0.00,WeatherDisplay:10.37,2013-06-12 19:02:00,
2013-06-12 12:07:00,73.8,45.9,29.98,West,270,6.9,6.9,37,0.00,CLR,FEW,0.00,WeatherDisplay:10.37,2013-06-12 19:07:00,
2013-06-12 12:12:00,73.9,45.3,29.98,NW,315,0.0,0.0,36,0.00,CLR,FEW,0.00,WeatherDisplay:10.37,2013-06-12 19:12:00,
2013-06-12 12:17:00,73.9,46.0,29.98,SSW,202,4.6,4.6,37,0.00,CLR,FEW,0.00,WeatherDisplay:10.37,2013-06-12 19:17:00,
2013-06-12 12:22:00,74.5,46.5,29.97,West,270,6.9,6.9,37,0.00,CLR,FEW,0.00,WeatherDisplay:10.37,2013-06-12 19:22:00,
2013-06-12 12:27:00,75.0,45.5,29.97,WNW,292,8.1,8.1,35,0.00,CLR,FEW,0.00,WeatherDisplay:10.37,2013-06-12 19:27:00,
2013-06-12 12:32:00,75.0,44.7,29.97,WNW,292,0.0,0.0,34,0.00,CLR,FEW,0.00,WeatherDisplay:10.37,2013-06-12 19:32:00,
2013-06-12 12:37:00,75.4,46.6,29.97,WNW,292,0.0,0.0,36,0.00,CLR,FEW,0.00,WeatherDisplay:10.37,2013-06-12 19:37:00,
2013-06-12 12:42:00,75.4,45.1,29.97,WNW,292,6.9,6.9,34,0.00,CLR,FEW,0.00,WeatherDisplay:10.37,2013-06-12 19:42:00,
2013-06-12 12:47:00,75.4,45.1,29.96,WNW,292,3.5,3.5,34,0.00,CLR,FEW,0.00,WeatherDisplay:10.37,2013-06-12 19:47:00,
2013-06-12 12:52:00,75.4,46.6,29.96,West,270,1.1,1.1,36,0.00,CLR,FEW,0.00,WeatherDisplay:10.37,2013-06-12 19:52:00,
2013-06-12 12:57:00,75.9,47.0,29.96,WNW,292,6.9,7.4,36,0.00,CLR,FEW,0.00,WeatherDisplay:10.37,2013-06-12 19:57:00,
2013-06-12 13:02:00,75.9,45.5,29.96,NW,315,5.8,5.8,34,0.00,CLR,FEW,0.00,WeatherDisplay:10.37,2013-06-12 20:02:00,
2013-06-12 13:07:00,75.9,46.3,29.96,NNW,338,0.0,0.0,35,0.00,CLR,FEW,0.00,WeatherDisplay:10.37,2013-06-12 20:07:00,
2013-06-12 13:12:00,75.9,46.3,29.96,WNW,292,8.5,8.5,35,0.00,CLR,FEW,0.00,WeatherDisplay:10.37,2013-06-12 20:12:00,
2013-06-12 13:17:00,75.6,46.0,29.96,WSW,248,10.4,10.4,35,0.00,CLR,FEW,0.00,WeatherDisplay:10.37,2013-06-12 20:17:00,
2013-06-12 13:22:00,75.4,45.1,29.95,West,270,2.3,0.0,34,0.00,CLR,FEW,0.00,WeatherDisplay:10.37,2013-06-12 20:22:00,
2013-06-12 13:27:00,74.7,45.9,29.95,West,270,11.5,11.5,36,0.00,CLR,FEW,0.00,WeatherDisplay:10.37,2013-06-12 20:27:00,
2013-06-12 13:32:00,74.3,44.9,29.96,WNW,292,0.0,0.0,35,0.00,CLR,FEW,0.00,WeatherDisplay:10.37,2013-06-12 20:32:00,
2013-06-12 13:37:00,74.8,46.1,29.95,West,270,5.8,5.8,36,0.00,CLR,FEW,0.00,WeatherDisplay:10.37,2013-06-12 20:37:00,
2013-06-12 13:42:00,75.6,46.7,29.95,WNW,292,0.0,2.2,36,0.00,CLR,FEW,0.00,WeatherDisplay:10.37,2013-06-12 20:42:00,
2013-06-12 13:47:00,75.7,46.9,29.95,WNW,292,6.9,6.9,36,0.00,CLR,FEW,0.00,WeatherDisplay:10.37,2013-06-12 20:47:00,
2013-06-12 13:52:00,75.9,45.5,29.95,WNW,292,1.1,1.1,34,0.00,CLR,FEW,0.00,WeatherDisplay:10.37,2013-06-12 20:52:00,
2013-06-12 13:57:00,75.9,45.5,29.95,West,270,3.5,3.5,34,0.00,CLR,FEW,0.00,WeatherDisplay:10.37,2013-06-12 20:57:00,
2013-06-12 14:02:00,75.7,45.4,29.95,SW,225,6.9,6.9,34,0.00,CLR,FEW,0.00,WeatherDisplay:10.37,2013-06-12 21:02:00,
2013-06-12 14:07:00,75.7,45.4,29.95,WNW,292,0.0,0.0,34,0.00,CLR,FEW,0.00,WeatherDisplay:10.37,2013-06-12 21:07:00,
2013-06-12 14:12:00,75.6,45.2,29.94,NW,315,8.7,8.7,34,0.00,CLR,FEW,0.00,WeatherDisplay:10.37,2013-06-12 21:12:00,
2013-06-12 14:17:00,75.4,45.1,29.95,WNW,292,11.5,11.5,34,0.00,CLR,FEW,0.00,WeatherDisplay:10.37,2013-06-12 21:17:00,
2013-06-12 14:22:00,75.4,45.8,29.95,NW,315,5.8,5.8,35,0.00,CLR,FEW,0.00,WeatherDisplay:10.37,2013-06-12 21:22:00,
2013-06-12 14:27:00,75.6,45.2,29.95,NW,315,10.4,10.4,34,0.00,CLR,FEW,0.00,WeatherDisplay:10.37,2013-06-12 21:27:00,
2013-06-12 14:32:00,75.4,45.1,29.95,WNW,292,13.8,13.8,34,0.00,CLR,FEW,0.00,WeatherDisplay:10.37,2013-06-12 21:32:00,
2013-06-12 14:37:00,75.2,45.7,29.94,NW,315,8.1,8.1,35,0.00,CLR,FEW,0.00,WeatherDisplay:10.37,2013-06-12 21:37:00,
2013-06-12 14:42:00,75.0,45.5,29.95,NW,315,5.8,5.8,35,0.00,CLR,FEW,0.00,WeatherDisplay:10.37,2013-06-12 21:42:00,
2013-06-12 14:47:00,75.4,45.8,29.94,WNW,292,10.4,10.4,35,0.00,CLR,FEW,0.00,WeatherDisplay:10.37,2013-06-12 21:47:00,
2013-06-12 14:52:00,75.4,45.1,29.94,WNW,292,4.9,4.9,34,0.00,CLR,FEW,0.00,WeatherDisplay:10.37,2013-06-12 21:52:00,
2013-06-12 14:57:00,75.2,45.7,29.94,WNW,292,3.8,3.8,35,0.00,CLR,FEW,0.00,WeatherDisplay:10.37,2013-06-12 21:57:00,
2013-06-12 15:02:00,75.4,45.1,29.94,West,270,6.9,6.9,34,0.00,CLR,FEW,0.00,WeatherDisplay:10.37,2013-06-12 22:02:00,
2013-06-12 15:07:00,75.4,45.1,29.94,West,270,9.2,9.2,34,0.00,CLR,FEW,0.00,WeatherDisplay:10.37,2013-06-12 22:07:00,
2013-06-12 15:12:00,75.0,44.7,29.94,WNW,292,6.9,6.9,34,0.00,CLR,FEW,0.00,WeatherDisplay:10.37,2013-06-12 22:12:00,
2013-06-12 15:17:00,75.4,45.8,29.94,WSW,248,3.5,3.5,35,0.00,CLR,FEW,0.00,WeatherDisplay:10.37,2013-06-12 22:17:00,
2013-06-12 15:22:00,75.4,45.1,29.94,WNW,292,8.1,8.1,34,0.00,CLR,FEW,0.00,WeatherDisplay:10.37,2013-06-12 22:22:00,
2013-06-12 15:27:00,75.4,45.1,29.94,WNW,292,6.9,6.9,34,0.00,CLR,FEW,0.00,WeatherDisplay:10.37,2013-06-12 22:27:00,
2013-06-12 15:32:00,75.2,44.9,29.94,WSW,248,6.9,6.9,34,0.00,CLR,FEW,0.00,WeatherDisplay:10.37,2013-06-12 22:32:00,
2013-06-12 15:37:00,75.4,45.1,29.94,WSW,248,2.3,2.3,34,0.00,CLR,FEW,0.00,WeatherDisplay:10.37,2013-06-12 22:37:00,
2013-06-12 15:42:00,75.6,45.2,29.95,WSW,248,11.5,11.5,34,0.00,CLR,FEW,0.00,WeatherDisplay:10.37,2013-06-12 22:42:00,
2013-06-12 15:47:00,75.4,45.1,29.95,WNW,292,10.4,10.4,34,0.00,CLR,FEW,0.00,WeatherDisplay:10.37,2013-06-12 22:47:00,
2013-06-12 15:52:00,75.4,45.1,29.95,WNW,292,11.6,11.6,34,0.00,CLR,FEW,0.00,WeatherDisplay:10.37,2013-06-12 22:52:00,
2013-06-12 15:57:00,75.4,44.3,29.95,West,270,6.9,6.9,33,0.00,CLR,FEW,0.00,WeatherDisplay:10.37,2013-06-12 22:57:00,
2013-06-12 16:02:00,75.0,44.0,29.94,NW,315,10.4,10.4,33,0.00,CLR,FEW,0.00,WeatherDisplay:10.37,2013-06-12 23:02:00,
2013-06-12 16:07:00,74.8,43.8,29.95,WNW,292,9.4,9.4,33,0.00,CLR,FEW,0.00,WeatherDisplay:10.37,2013-06-12 23:07:00,
2013-06-12 16:12:00,74.8,44.6,29.95,WNW,292,2.7,2.7,34,0.00,CLR,FEW,0.00,WeatherDisplay:10.37,2013-06-12 23:12:00,
2013-06-12 16:17:00,74.8,44.6,29.95,WSW,248,6.0,6.0,34,0.00,CLR,FEW,0.00,WeatherDisplay:10.37,2013-06-12 23:17:00,
2013-06-12 16:22:00,74.8,44.6,29.95,West,270,9.2,9.2,34,0.00,CLR,FEW,0.00,WeatherDisplay:10.37,2013-06-12 23:22:00,
2013-06-12 16:27:00,74.8,43.8,29.95,WNW,292,11.5,11.5,33,0.00,CLR,FEW,0.00,WeatherDisplay:10.37,2013-06-12 23:27:00,
2013-06-12 16:32:00,74.5,44.3,29.95,WNW,292,11.6,11.6,34,0.00,CLR,FEW,0.00,WeatherDisplay:10.37,2013-06-12 23:32:00,
2013-06-12 16:37:00,74.1,43.9,29.95,WNW,292,9.2,9.2,34,0.00,CLR,FEW,0.00,WeatherDisplay:10.37,2013-06-12 23:37:00,
2013-06-12 16:42:00,74.1,43.9,29.96,WNW,292,9.4,9.4,34,0.00,CLR,FEW,0.00,WeatherDisplay:10.37,2013-06-12 23:42:00,
2013-06-12 16:47:00,73.9,43.8,29.96,West,270,11.5,11.5,34,0.00,CLR,FEW,0.00,WeatherDisplay:10.37,2013-06-12 23:47:00,
2013-06-12 16:52:00,73.8,43.6,29.96,NW,315,11.5,11.5,34,0.00,CLR,FEW,0.00,WeatherDisplay:10.37,2013-06-12 23:52:00,
2013-06-12 16:57:00,73.8,43.6,29.96,NW,315,7.4,7.4,34,0.00,CLR,FEW,0.00,WeatherDisplay:10.37,2013-06-12 23:57:00,
2013-06-12 17:02:00,73.9,44.5,29.96,West,270,7.2,7.2,35,0.00,CLR,FEW,0.00,WeatherDisplay:10.37,2013-06-13 00:02:00,
2013-06-12 17:07:00,73.9,43.8,29.95,NW,315,9.4,9.4,34,0.00,CLR,FEW,0.00,WeatherDisplay:10.37,2013-06-13 00:07:00,
2013-06-12 17:12:00,73.9,43.8,29.95,West,270,4.7,4.7,34,0.00,CLR,FEW,0.00,WeatherDisplay:10.37,2013-06-13 00:12:00,
2013-06-12 17:17:00,73.9,43.8,29.96,WNW,292,8.3,8.3,34,0.00,CLR,FEW,0.00,WeatherDisplay:10.37,2013-06-13 00:17:00,
2013-06-12 17:22:00,73.9,43.8,29.95,NW,315,6.9,6.9,34,0.00,CLR,FEW,0.00,WeatherDisplay:10.37,2013-06-13 00:22:00,
2013-06-12 17:27:00,73.8,43.6,29.95,NW,315,7.4,7.4,34,0.00,CLR,FEW,0.00,WeatherDisplay:10.37,2013-06-13 00:27:00,
2013-06-12 17:32:00,73.8,43.6,29.95,West,270,8.1,8.1,34,0.00,CLR,FEW,0.00,WeatherDisplay:10.37,2013-06-13 00:32:00,
2013-06-12 17:37:00,73.6,42.7,29.95,NW,315,8.0,8.0,33,0.00,CLR,FEW,0.00,WeatherDisplay:10.37,2013-06-13 00:37:00,
2013-06-12 17:42:00,73.6,42.7,29.95,NW,315,12.7,12.7,33,0.00,CLR,FEW,0.00,WeatherDisplay:10.37,2013-06-13 00:42:00,
2013-06-12 17:47:00,73.2,43.2,29.95,NW,315,10.5,10.5,34,0.00,CLR,FEW,0.00,WeatherDisplay:10.37,2013-06-13 00:47:00,
2013-06-12 17:52:00,73.2,42.4,29.95,WSW,248,5.8,5.8,33,0.00,CLR,FEW,0.00,WeatherDisplay:10.37,2013-06-13 00:52:00,
2013-06-12 17:57:00,73.2,43.2,29.95,WNW,292,3.5,3.5,34,0.00,CLR,FEW,0.00,WeatherDisplay:10.37,2013-06-13 00:57:00,
2013-06-12 18:02:00,73.2,43.2,29.95,WSW,248,6.3,6.3,34,0.00,CLR,FEW,0.00,WeatherDisplay:10.37,2013-06-13 01:02:00,
2013-06-12 18:07:00,73.2,42.4,29.95,WSW,248,9.2,9.2,33,0.00,CLR,FEW,0.00,WeatherDisplay:10.37,2013-06-13 01:07:00,
2013-06-12 18:12:00,73.6,42.7,29.95,NW,315,6.9,6.9,33,0.00,CLR,FEW,0.00,WeatherDisplay:10.37,2013-06-13 01:12:00,
2013-06-12 18:17:00,73.6,42.7,29.94,WNW,292,0.0,0.0,33,0.00,CLR,FEW,0.00,WeatherDisplay:10.37,2013-06-13 01:17:00,
2013-06-12 18:22:00,73.9,43.0,29.94,NW,315,0.0,0.0,33,0.00,CLR,FEW,0.00,WeatherDisplay:10.37,2013-06-13 01:22:00,
2013-06-12 18:27:00,74.1,42.4,29.94,WNW,292,3.5,3.5,32,0.00,CLR,FEW,0.00,WeatherDisplay:10.37,2013-06-13 01:27:00,
2013-06-12 18:32:00,74.1,43.2,29.94,West,270,0.0,0.0,33,0.00,CLR,FEW,0.00,WeatherDisplay:10.37,2013-06-13 01:32:00,
2013-06-12 18:37:00,74.8,43.0,29.93,West,270,5.4,5.4,32,0.00,CLR,FEW,0.00,WeatherDisplay:10.37,2013-06-13 01:37:00,
2013-06-12 18:42:00,74.8,43.8,29.93,WNW,292,0.0,0.0,33,0.00,CLR,FEW,0.00,WeatherDisplay:10.37,2013-06-13 01:42:00,
2013-06-12 18:47:00,74.8,43.0,29.93,NW,315,0.0,0.0,32,0.00,CLR,FEW,0.00,WeatherDisplay:10.37,2013-06-13 01:47:00,
2013-06-12 18:52:00,74.8,43.8,29.93,WNW,292,6.9,6.9,33,0.00,CLR,FEW,0.00,WeatherDisplay:10.37,2013-06-13 01:52:00,
2013-06-12 18:57:00,74.5,43.5,29.93,WNW,292,7.2,7.2,33,0.00,CLR,FEW,0.00,WeatherDisplay:10.37,2013-06-13 01:57:00,
2013-06-12 19:02:00,73.9,43.0,29.93,NW,315,1.1,1.1,33,0.00,CLR,FEW,0.00,WeatherDisplay:10.37,2013-06-13 02:02:00,
2013-06-12 19:07:00,73.2,42.4,29.93,NW,315,6.9,9.3,33,0.00,CLR,FEW,0.00,WeatherDisplay:10.37,2013-06-13 02:07:00,
2013-06-12 19:12:00,73.0,42.2,29.94,NW,315,8.1,8.1,33,0.00,CLR,FEW,0.00,WeatherDisplay:10.37,2013-06-13 02:12:00,
2013-06-12 19:17:00,72.7,41.9,29.94,NNW,338,3.6,3.6,33,0.00,CLR,FEW,0.00,WeatherDisplay:10.37,2013-06-13 02:17:00,
2013-06-12 19:22:00,72.5,42.5,29.95,WSW,248,2.3,2.3,34,0.00,CLR,FEW,0.00,WeatherDisplay:10.37,2013-06-13 02:22:00,
2013-06-12 19:27:00,72.3,42.4,29.95,WNW,292,6.3,6.3,34,0.00,CLR,FEW,0.00,WeatherDisplay:10.37,2013-06-13 02:27:00,
2013-06-12 19:32:00,72.3,42.4,29.95,NW,315,0.0,0.0,34,0.00,CLR,FEW,0.00,WeatherDisplay:10.37,2013-06-13 02:32:00,
2013-06-12 19:37:00,71.8,42.6,29.95,NW,315,6.9,6.9,35,0.00,CLR,FEW,0.00,WeatherDisplay:10.37,2013-06-13 02:37:00,
2013-06-12 19:42:00,71.2,42.2,29.95,WNW,292,8.1,8.1,35,0.00,CLR,FEW,0.00,WeatherDisplay:10.37,2013-06-13 02:42:00,
2013-06-12 19:47:00,71.1,42.0,29.95,WNW,292,0.0,0.0,35,0.00,CLR,FEW,0.00,WeatherDisplay:10.37,2013-06-13 02:47:00,
2013-06-12 19:52:00,70.7,42.4,29.94,NW,315,5.8,5.8,36,0.00,CLR,FEW,0.00,WeatherDisplay:10.37,2013-06-13 02:52:00,
2013-06-12 19:57:00,70.3,42.1,29.94,NW,315,3.5,3.5,36,0.00,CLR,FEW,0.00,WeatherDisplay:10.37,2013-06-13 02:57:00,
2013-06-12 20:02:00,70.0,41.8,29.94,NW,315,5.8,5.8,36,0.00,CLR,FEW,0.00,WeatherDisplay:10.37,2013-06-13 03:02:00,
2013-06-12 20:07:00,69.8,42.3,29.94,WNW,292,0.0,0.1,37,0.00,CLR,FEW,0.00,WeatherDisplay:10.37,2013-06-13 03:07:00,
2013-06-12 20:12:00,69.6,42.2,29.94,WNW,292,2.3,2.3,37,0.00,CLR,FEW,0.00,WeatherDisplay:10.37,2013-06-13 03:12:00,
2013-06-12 20:17:00,69.4,42.0,29.94,WNW,292,0.0,0.0,37,0.00,CLR,FEW,0.00,WeatherDisplay:10.37,2013-06-13 03:17:00,
2013-06-12 20:22:00,69.3,41.9,29.95,NW,315,0.0,0.0,37,0.00,CLR,FEW,0.00,WeatherDisplay:10.37,2013-06-13 03:22:00,
2013-06-12 20:27:00,69.1,42.4,29.95,WNW,292,0.0,0.0,38,0.00,CLR,FEW,0.00,WeatherDisplay:10.37,2013-06-13 03:27:00,
2013-06-12 20:32:00,68.9,42.2,29.95,WNW,292,0.0,0.0,38,0.00,CLR,FEW,0.00,WeatherDisplay:10.37,2013-06-13 03:32:00,
2013-06-12 20:37:00,68.7,42.1,29.95,WNW,292,3.8,3.8,38,0.00,CLR,FEW,0.00,WeatherDisplay:10.37,2013-06-13 03:37:00,
2013-06-12 20:42:00,68.7,42.1,29.94,WNW,292,0.0,0.0,38,0.00,CLR,FEW,0.00,WeatherDisplay:10.37,2013-06-13 03:42:00,
2013-06-12 20:47:00,68.5,41.9,29.95,NW,315,0.0,0.0,38,0.00,CLR,FEW,0.00,WeatherDisplay:10.37,2013-06-13 03:47:00,
2013-06-12 20:52:00,68.2,42.3,29.95,NNW,338,0.0,0.0,39,0.00,CLR,FEW,0.00,WeatherDisplay:10.37,2013-06-13 03:52:00,
2013-06-12 20:57:00,67.8,43.2,29.95,NNW,338,0.0,0.0,41,0.00,CLR,FEW,0.00,WeatherDisplay:10.37,2013-06-13 03:57:00,
2013-06-12 21:01:00,67.6,43.1,29.95,NNW,338,0.0,0.0,41,0.00,CLR,FEW,0.00,WeatherDisplay:10.37,2013-06-13 04:01:00,
2013-06-12 21:06:00,67.5,42.9,29.96,NNW,338,0.0,0.0,41,0.00,CLR,FEW,0.00,WeatherDisplay:10.37,2013-06-13 04:06:00,
2013-06-12 21:11:00,67.1,43.8,29.96,NNW,338,0.0,0.0,43,0.00,CLR,FEW,0.00,WeatherDisplay:10.37,2013-06-13 04:11:00,
2013-06-12 21:16:00,66.7,44.1,29.97,NNW,338,0.0,0.0,44,0.00,CLR,FEW,0.00,WeatherDisplay:10.37,2013-06-13 04:16:00,
2013-06-12 21:21:00,66.7,44.7,29.97,NNW,338,0.0,0.0,45,0.00,CLR,FEW,0.00,WeatherDisplay:10.37,2013-06-13 04:21:00,
2013-06-12 21:26:00,66.2,44.2,29.97,WNW,292,0.0,0.0,45,0.00,CLR,FEW,0.00,WeatherDisplay:10.37,2013-06-13 04:26:00,
2013-06-12 21:31:00,65.8,43.9,29.97,WNW,292,0.0,0.0,45,0.00,CLR,FEW,0.00,WeatherDisplay:10.37,2013-06-13 04:31:00,
2013-06-12 21:36:00,65.7,43.7,29.97,NNW,338,0.0,0.0,45,0.00,CLR,FEW,0.00,WeatherDisplay:10.37,2013-06-13 04:36:00,
2013-06-12 21:41:00,65.5,44.7,29.97,NNW,338,0.0,0.0,47,0.00,CLR,FEW,0.00,WeatherDisplay:10.37,2013-06-13 04:41:00,
2013-06-12 21:46:00,65.1,43.8,29.97,NNW,338,0.0,0.0,46,0.00,CLR,FEW,0.00,WeatherDisplay:10.37,2013-06-13 04:46:00,
2013-06-12 21:51:00,65.1,44.4,29.97,NNW,338,0.0,0.0,47,0.00,CLR,FEW,0.00,WeatherDisplay:10.37,2013-06-13 04:51:00,
2013-06-12 21:56:00,65.1,44.4,29.97,NNW,338,0.0,0.0,47,0.00,CLR,FEW,0.00,WeatherDisplay:10.37,2013-06-13 04:56:00,
2013-06-12 22:01:00,65.1,44.9,29.97,NNW,338,0.0,0.0,48,0.00,CLR,FEW,0.00,WeatherDisplay:10.37,2013-06-13 05:01:00,
2013-06-12 22:06:00,64.8,45.1,29.97,North,0,0.0,0.0,49,0.00,CLR,FEW,0.00,WeatherDisplay:10.37,2013-06-13 05:06:00,
2013-06-12 22:11:00,64.2,45.2,29.97,North,0,0.0,0.0,50,0.00,CLR,FEW,0.00,WeatherDisplay:10.37,2013-06-13 05:11:00,
2013-06-12 22:16:00,64.0,45.0,29.98,North,0,0.0,0.0,50,0.00,CLR,FEW,0.00,WeatherDisplay:10.37,2013-06-13 05:16:00,
2013-06-12 22:21:00,64.0,45.5,29.99,North,0,0.0,0.0,51,0.00,CLR,FEW,0.00,WeatherDisplay:10.37,2013-06-13 05:21:00,
2013-06-12 22:26:00,63.3,45.4,29.99,SSE,158,4.6,4.6,52,0.00,CLR,FEW,0.00,WeatherDisplay:10.37,2013-06-13 05:26:00,
2013-06-12 22:31:00,63.5,45.0,30.00,SSE,158,1.1,0.0,51,0.00,CLR,FEW,0.00,WeatherDisplay:10.37,2013-06-13 05:31:00,
2013-06-12 22:36:00,63.5,45.0,30.00,SSE,158,0.0,0.0,51,0.00,CLR,FEW,0.00,WeatherDisplay:10.37,2013-06-13 05:36:00,
2013-06-12 22:41:00,63.5,45.0,30.01,SSE,158,0.0,0.0,51,0.00,CLR,FEW,0.00,WeatherDisplay:10.37,2013-06-13 05:41:00,
2013-06-12 22:46:00,63.3,45.4,30.01,West,270,1.1,1.5,52,0.00,CLR,FEW,0.00,WeatherDisplay:10.37,2013-06-13 05:46:00,
2013-06-12 22:51:00,63.3,45.4,30.02,West,270,0.0,0.0,52,0.00,CLR,FEW,0.00,WeatherDisplay:10.37,2013-06-13 05:51:00,
2013-06-12 22:56:00,63.1,45.2,30.01,East,90,3.4,3.4,52,0.00,CLR,FEW,0.00,WeatherDisplay:10.37,2013-06-13 05:56:00,
2013-06-12 23:01:00,62.6,46.7,30.01,ESE,112,0.0,0.0,56,0.00,CLR,FEW,0.00,WeatherDisplay:10.37,2013-06-13 06:01:00,
2013-06-12 23:06:00,62.2,46.8,30.01,ESE,112,0.0,0.0,57,0.00,CLR,FEW,0.00,WeatherDisplay:10.37,2013-06-13 06:06:00,
2013-06-12 23:11:00,61.7,47.2,30.02,SSE,158,0.0,0.0,59,0.00,CLR,FEW,0.00,WeatherDisplay:10.37,2013-06-13 06:11:00,
2013-06-12 23:16:00,61.5,47.9,30.01,ESE,112,0.0,0.0,61,0.00,CLR,FEW,0.00,WeatherDisplay:10.37,2013-06-13 06:16:00,
2013-06-12 23:21:00,61.0,47.4,30.02,ESE,112,0.0,0.0,61,0.02,RA,FEW,0.02,WeatherDisplay:10.37,2013-06-13 06:21:00,
2013-06-12 23:26:00,59.9,47.7,30.02,SE,135,0.0,0.0,64,0.02,RA,FEW,0.02,WeatherDisplay:10.37,2013-06-13 06:26:00,
2013-06-12 23:31:00,59.4,47.6,30.02,SE,135,0.0,0.0,65,0.02,,FEW,0.02,WeatherDisplay:10.37,2013-06-13 06:31:00,
2013-06-12 23:36:00,59.2,47.4,30.01,SE,135,0.0,0.0,65,0.02,CLR,FEW,0.02,WeatherDisplay:10.37,2013-06-13 06:36:00,
2013-06-12 23:41:00,58.8,47.9,30.02,SE,135,0.0,0.0,67,0.04,RA,FEW,0.04,WeatherDisplay:10.37,2013-06-13 06:41:00,
2013-06-12 23:46:00,58.8,48.3,30.02,SE,135,0.0,0.0,68,0.04,RA,FEW,0.04,WeatherDisplay:10.37,2013-06-13 06:46:00,
2013-06-12 23:51:00,58.8,48.7,30.02,SE,135,0.0,0.0,69,0.04,CLR,FEW,0.04,WeatherDisplay:10.37,2013-06-13 06:51:00,
2013-06-12 23:56:00,58.6,49.3,30.02,SE,135,0.0,0.0,71,0.04,CLR,FEW,0.04,WeatherDisplay:10.37,2013-06-13 06:56:00,